Weather Roundup
Issued by NWS

Home | Current Version | Previous Version | Graphics & Text | Print | Product List | Glossary Off
Versions: 1 2 3 4 5 6 7 8 9 10 11 12 13 14 15 16 17 18 19 20 21 22 23 24 25 26 27 28 29 30 31 32 33 34 35 36 37 38 39 40 41 42 43 44 45 46 47 48 49 50

000
NZUS93 KARX 190959
HRRWXR

CURRENT HOURLY OBSERVATIONS ACROSS
MUCH OF THE UPPER MISSISSIPPI VALLEY
NATIONAL WEATHER SERVICE LA CROSSE WI
400 AM CST THU JAN 19 2017


...SOUTHEAST MINNESOTA...


CITY           SKY/WX    TMP DP  RH WIND       PRES   REMARKS
ROCHESTER      CLEAR     30  29  96 S14       29.86F WCI  19
ROCHESTER/MAYO FAIR      33  33 100 S6        29.86F WCI  27
WINONA         CLEAR     34  32  93 SE7       29.90F WCI  28
AUSTIN         CLOUDY    30  28  93 S9        29.87F FOG     WCI  22
ALBERT LEA     CLEAR     34  32  93 S7        29.85S FOG     WCI  28
DODGE CENTER   CLEAR     32  30  93 S16       29.84F WCI  21
PRESTON        PTCLDY    31  29  94 S15       29.89R FOG     WCI  20
OWATONNA       CLEAR     34  30  86 S10       29.84S WCI  26
FARIBAULT      CLEAR     34  30  86 S8        29.84S WCI  27
$$

...ELSEWHERE IN MINNESOTA...


CITY           SKY/WX    TMP DP  RH WIND       PRES   REMARKS
MINNEAPOLIS    CLEAR     31  29  92 SE7       29.82S WCI  24
INTNL FALLS    CLOUDY    21  18  88 SE3       29.67F
DULUTH         FOG       33  33 100 SW10      29.75F VSB 1/4 WCI  25
RED WING       CLEAR     32  30  93 SE3       29.86S
REDWOOD FALLS  CLEAR     35  31  85 S13       29.75S WCI  26
MANKATO        CLEAR     34  32  92 S9        29.82  WCI  27
WORTHINGTON    CLEAR     36  32  85 S16       29.76F WCI  26
FAIRMONT       CLEAR     34  32  92 S13       29.81F WCI  25
$$

...SOUTHWEST WISCONSIN...


CITY           SKY/WX    TMP DP  RH WIND       PRES   REMARKS
LA CROSSE      PTCLDY    36  32  85 S9        29.92F WCI  29
PRAIRIE DU CHI MOCLDY    33  32  94 CALM      29.97S FOG
BOSCOBEL       PTCLDY    35  32  88 CALM      29.97S
LONE ROCK      NOT AVBL
PLATTEVILLE    CLOUDY    33  33 100 S3        29.98F VSB 1/4
FORT MC COY    PTCLDY    32  31  98 S5        29.94F FOG     WCI  27
MAUSTON-NEW LI CLOUDY    35  33  94 CALM      29.94F
VIROQUA        CLOUDY    33  33 100 SE6       29.93S VSB 1/2 WCI  27
WIS DELLS      PTCLDY    33  32  96 CALM      29.95F FOG
$$

...ELSEWHERE IN WISCONSIN...


CITY           SKY/WX    TMP DP  RH WIND       PRES   REMARKS
MILWAUKEE      CLOUDY    35  32  88 W6        29.99F FOG     WCI  30
MADISON        CLOUDY    33  33 100 CALM      29.97F FOG
GREEN BAY      CLOUDY    34  33  96 SW8       29.95S FOG     WCI  27
EAU CLAIRE     CLOUDY    31  30  96 S7        29.87F FOG     WCI  24
BLACK RVR FLS  FOG       29  29 100 CALM      29.91F VSB 1/4
MEDFORD        FOG       30  30  99 S8        29.88S VSB 1/4 WCI  23
WAUSAU         FOG       30  30 100 S9        29.90S VSB 1/2 WCI  22
WIS RAPIDS     CLOUDY    33  33 100 SW6       29.94F FOG     WCI  28
MARSHFIELD     FOG       31  31 100 SW6       29.89F VSB 1/4 WCI  25
RICE LAKE      FOG       28  28  99 SE8       29.86S VSB<1/4 WCI  20
$$

...NORTHEAST IOWA...


CITY           SKY/WX    TMP DP  RH WIND       PRES   REMARKS
WATERLOO       FOG       32  31  96 S6        29.93F VSB 1/2 WCI  26
DUBUQUE        FOG       32  32 100 S8        29.97F VSB 1/4 WCI  25
DECORAH        FOG       32  32 100 S12G18    29.91F VSB 3/4 WCI  23
MASON CITY     FOG       31  31 100 S17       29.88S VSB 3/4 WCI  19
CHARLES CITY   FOG       32  32 100 S16       29.91F VSB 1/4 WCI  21
OELWEIN        FOG       32  32 100 S7        29.93F VSB 1/4 WCI  26
$$

...ELSEWHERE IN IOWA...


CITY           SKY/WX    TMP DP  RH WIND       PRES   REMARKS
DES MOINES     FOG       34  34 100 E6        29.89F VSB 1/4 WCI  29
IOWA CITY      FOG       31  30  96 CALM      29.98F VSB 1/4
FORT DODGE     CLOUDY    34  30  86 S8        29.87F VSB 3/4 WCI  27
MARSHALLTOWN   FOG       33  33 100 CALM      29.91F VSB 1/4
CEDAR RAPIDS   FOG       31  31 100 SE6       29.94F VSB 1/4 WCI  25
$$

...NORTHERN ILLINOIS...


CITY           SKY/WX    TMP DP  RH WIND       PRES   REMARKS
CHICAGO-OHARE  FOG       33  33 100 S7        30.02F VSB 3/4 WCI  27
CHICAGO-MIDWAY CLOUDY    32  31  96 SE3       30.03F FOG
MOLINE         CLOUDY    28  26  92 E7        29.97F FOG     WCI  21
ROCKFORD       CLOUDY    30  29  96 S6        30.02F FOG     WCI  24
PEORIA         CLOUDY    36  35  96 SE5       30.01F FOG     WCI  32
$$

NOTE: "FAIR" INDICATES FEW OR NO CLOUDS BELOW 12,000 FEET WITH NO
SIGNIFICANT WEATHER AND/OR OBSTRUCTIONS TO VISIBILITY. WIND
SPEEDS ARE IN MILES-PER-HOUR.




USA.gov is the U.S. government's official web portal to all federal, state and local government web resources and services.